Tracking 35035 objects as of 16-Aug-2026
HD Live streaming from Space Station
objects crossing your sky now

GAOFEN 5 01A

Track GAOFEN 5 01A now!
10-day predictions


NORAD ID: 54640
Int'l Code: 2022-165A
Launch date: December 8, 2022
Source: People's Republic of China (PRC)
Launch site: Taiyaun Space Center, China (TSC)
Your satellite tracking list
Your tracking list is empty




NASA's NSSDC Master Catalog

Two Line Element Set (TLE):
1 54640U 22165A   26228.58380931  .00000188  00000-0  51244-4 0  9999
2 54640  98.2356 165.2943 0002087 139.7042 220.4311 14.57739818196212
Source of the keplerian elements: AFSPC